Theta_e
335 329 328 333 334 334 334 330 329 330 329 325 319 320 328 327 326 331 332 331 330 329 329 330 331 329 329 331 331 330 330 331 331 331 331 332 332 330 328 326 323 322 321 320 317 309 303 302 302 302 302 302 302 302 302 301 301 301 300 301 300 300 300 300 300 300 299 299 299 299 299 299 299 299 298 299 298 298 298 298 298 298 298 299 299
336 326 326 335 334 334 336 333 334 335 334 334 329 330 336 333 330 332 331 330 328 328 329 330 331 330 330 331 330 330 331 331 332 332 332 332 332 329 326 325 324 322 320 318 311 304 302 302 302 302 302 302 302 301 301 300 300 300 300 300 300 300 300 300 300 300 299 299 299 299 299 299 299 299 298 298 298 298 298 298 298 298 298 299 300
337 326 327 334 332 334 336 335 336 335 335 336 333 334 336 333 331 332 331 329 327 328 331 330 330 330 331 332 332 331 331 331 332 332 332 332 331 327 324 323 323 322 320 313 305 302 302 302 302 302 302 301 301 301 301 300 300 300 300 300 300 300 300 300 300 300 300 299 299 299 299 299 299 298 298 298 298 298 298 298 298 298 297 297 301
338 328 330 333 330 332 333 335 334 331 336 336 333 335 335 333 332 332 330 329 328 329 331 331 330 331 332 333 334 332 331 331 332 332 332 331 329 326 324 323 322 320 316 307 302 302 302 302 302 302 301 301 301 301 300 300 300 300 300 300 300 300 300 300 300 300 300 299 299 299 299 299 298 298 298 298 298 298 298 298 297 297 298 299 302
337 331 333 331 330 332 327 329 329 328 335 334 332 336 335 334 332 332 330 329 330 331 331 331 331 331 333 334 334 333 332 331 331 331 331 331 329 326 324 324 322 316 311 305 302 302 302 302 302 301 301 301 301 300 300 300 300 300 299 300 300 300 300 300 300 300 299 299 299 299 298 298 298 298 298 298 298 298 297 297 297 296 298 303 305
334 329 333 331 330 330 321 321 324 325 330 330 333 335 332 334 333 332 332 331 332 332 332 333 332 333 334 333 333 333 333 332 331 331 330 330 329 327 325 324 323 318 317 311 302 302 302 301 301 301 301 301 301 300 300 300 300 300 300 300 300 300 300 300 300 300 299 299 298 298 298 298 298 298 298 298 298 297 297 297 297 296 297 304 307
330 325 330 331 328 323 317 317 320 323 323 321 326 326 324 330 334 333 332 333 333 332 332 332 332 333 333 332 332 333 332 332 332 331 329 328 328 327 325 324 324 321 322 317 304 301 302 301 301 301 301 301 301 300 300 300 300 300 300 300 300 300 300 300 299 299 299 298 298 298 298 298 298 298 298 298 298 297 297 296 297 296 296 303 309
323 321 324 330 328 319 318 320 321 325 322 317 319 318 320 328 334 332 330 333 332 331 333 332 331 332 331 331 332 332 331 331 331 330 329 328 327 327 325 324 323 322 323 317 306 302 302 302 301 301 301 301 300 301 300 300 300 300 300 300 300 300 300 300 299 299 299 298 298 298 298 298 298 298 298 298 298 297 297 297 296 296 297 303 308
316 317 318 327 330 323 322 325 326 328 326 325 326 325 328 331 334 332 329 333 332 331 333 332 332 332 332 332 332 331 331 331 331 329 328 327 326 326 325 324 323 324 323 317 309 305 304 302 301 301 300 301 300 300 300 300 300 300 299 299 299 300 299 299 299 299 299 298 298 298 297 298 298 298 298 298 298 298 297 297 296 296 298 301 304
313 316 319 326 332 330 329 331 333 332 331 334 335 334 336 336 337 334 330 333 334 333 334 333 333 332 332 333 331 331 331 331 331 329 328 326 326 325 324 324 325 323 320 318 313 310 308 304 302 302 301 300 300 300 300 300 300 299 299 299 299 299 299 299 299 298 298 298 297 298 297 297 298 298 298 298 298 298 298 297 297 298 299 297 298
313 318 322 326 332 335 337 337 337 336 335 337 337 336 337 337 338 335 332 334 334 334 334 334 334 332 333 332 331 332 331 331 331 330 328 327 325 324 323 324 324 320 318 320 317 313 312 307 303 306 305 302 300 300 299 299 299 299 299 299 299 299 299 299 299 298 298 298 297 297 297 298 298 298 298 298 298 298 297 297 298 299 298 296 296
314 318 324 327 330 335 339 339 337 336 336 336 335 336 336 336 337 334 333 335 334 334 335 335 334 333 333 332 332 332 331 331 331 329 327 326 325 323 323 322 321 318 316 318 318 315 312 308 306 311 311 306 304 302 300 300 299 299 300 299 299 299 300 299 298 298 298 298 298 297 298 298 298 298 298 298 298 298 297 297 297 297 296 296 296
315 318 321 325 329 334 339 339 337 337 337 335 335 335 335 336 335 333 333 333 333 334 335 335 334 333 333 332 333 333 331 332 331 329 327 326 325 324 323 321 319 318 315 315 317 316 312 306 308 314 314 310 308 305 304 303 301 301 301 300 300 301 300 299 298 298 298 298 298 298 298 298 298 298 298 298 298 298 297 297 297 296 296 296 296
314 316 317 322 328 332 337 339 338 337 336 335 335 335 335 335 336 335 333 332 333 333 334 334 333 333 333 332 332 331 330 331 331 329 327 326 326 324 322 321 319 319 316 314 314 313 310 307 309 315 316 312 310 308 307 307 304 304 304 302 301 301 300 299 298 298 298 298 298 298 298 298 298 298 298 298 298 298 297 297 296 296 296 296 296
315 316 317 322 327 331 335 338 338 338 336 334 334 334 335 335 336 336 334 333 334 335 334 334 333 333 332 331 331 329 329 330 330 330 328 326 325 324 323 322 320 318 317 316 314 310 309 309 311 314 314 311 310 309 309 309 308 308 307 304 302 302 301 300 299 298 298 298 298 298 298 298 298 298 298 298 298 298 297 297 296 296 296 296 296
319 318 318 321 326 330 333 335 336 336 335 334 334 333 334 334 335 336 336 334 334 335 335 334 334 333 332 331 330 330 330 330 329 329 329 327 325 324 323 322 320 317 316 317 315 312 310 311 311 312 311 310 310 310 310 310 309 310 308 305 303 302 302 301 299 298 298 298 298 298 298 298 298 298 298 298 298 297 297 296 296 296 296 296 296
324 320 318 319 325 330 332 333 333 335 335 334 334 333 334 334 334 335 336 336 334 333 334 334 334 333 333 332 331 331 331 331 330 328 328 328 326 324 323 323 320 317 316 316 315 313 311 311 310 311 311 308 307 308 309 309 310 310 308 305 303 303 303 302 300 298 298 298 298 298 298 298 298 298 298 298 297 297 297 296 296 296 296 296 296
328 324 319 317 323 328 330 332 332 332 334 334 333 333 334 334 335 335 335 336 335 333 333 333 333 334 333 332 332 332 331 331 330 330 328 327 327 325 324 323 321 318 316 317 316 313 312 311 310 311 312 309 305 304 305 309 311 309 306 305 304 303 303 302 300 298 298 298 298 298 298 298 298 298 298 297 297 297 296 296 296 296 296 296 296
330 329 323 319 322 325 327 330 331 332 334 334 333 332 334 334 335 336 336 336 336 334 335 333 332 333 333 333 332 332 331 330 330 330 329 327 327 326 325 324 323 320 317 317 317 313 312 312 311 311 312 311 309 305 306 309 311 309 307 306 305 303 303 302 300 298 298 298 298 298 298 298 298 298 298 297 297 297 296 296 296 296 296 296 296
332 331 327 322 322 323 325 328 331 333 334 335 334 332 332 333 335 336 336 336 335 335 335 334 333 332 333 333 332 331 331 330 330 331 330 328 327 326 325 324 323 322 320 317 317 314 313 313 312 312 312 312 311 309 308 309 310 310 309 308 306 304 303 302 300 298 298 298 298 298 298 298 298 298 298 297 297 297 296 296 296 296 296 296 296
335 333 330 327 325 324 327 328 328 331 334 335 335 332 330 331 333 335 336 335 334 334 334 334 333 332 332 332 332 332 331 330 330 330 330 330 329 327 326 324 323 323 323 320 318 316 314 313 313 312 312 312 311 311 310 310 311 311 309 308 306 304 303 302 299 298 298 298 298 298 298 298 298 298 297 297 297 297 297 297 296 296 296 296 297
336 334 332 332 331 328 329 329 326 328 331 335 337 334 331 331 332 334 335 335 334 334 333 333 332 333 333 332 332 332 332 331 330 329 329 329 329 328 327 325 324 324 324 323 321 318 315 314 314 313 312 311 311 311 311 310 311 310 308 308 306 305 304 302 299 298 298 298 298 298 298 298 298 298 298 297 297 297 297 297 297 296 296 297 298
336 335 332 334 335 330 328 329 327 326 330 334 337 336 334 332 332 334 335 335 335 333 333 333 332 332 332 332 332 332 332 331 330 329 328 328 328 328 327 326 326 325 325 324 323 320 316 314 314 314 314 312 311 312 311 311 310 309 308 308 307 305 304 301 299 298 298 298 298 298 298 298 298 298 298 297 297 297 297 297 296 296 297 298 298
336 335 334 335 334 330 330 331 328 327 329 333 337 337 336 333 332 333 334 335 335 334 334 333 333 333 332 332 333 332 331 330 329 329 329 328 328 328 328 327 326 326 325 325 324 322 318 315 315 315 313 312 311 312 311 311 311 310 309 308 307 305 303 300 298 298 298 298 298 298 298 298 298 298 298 298 297 297 297 297 297 297 298 298 298
337 336 335 335 333 332 332 333 331 329 330 333 336 337 337 335 333 333 334 334 334 334 334 334 333 333 333 333 333 333 331 330 329 329 329 329 328 328 329 329 327 326 325 325 324 322 318 316 315 314 312 311 311 311 311 311 311 310 310 308 306 305 302 299 298 298 298 298 298 298 298 298 298 298 298 298 298 297 297 297 298 298 299 299 299
337 337 337 335 334 334 334 334 333 331 330 333 335 336 337 335 333 334 334 334 334 334 334 334 333 333 333 333 333 333 333 331 330 329 329 329 329 329 329 329 328 326 325 324 323 321 318 317 315 314 312 312 311 311 311 311 310 310 308 307 305 303 300 298 298 298 298 298 298 298 298 298 298 298 298 298 298 298 298 298 298 299 299 299 299
337 338 337 337 336 336 335 333 333 332 331 333 334 336 337 335 334 334 335 334 334 334 334 334 333 333 333 333 333 333 333 332 331 330 329 329 329 329 330 329 328 327 325 323 321 320 318 317 315 314 312 312 311 311 311 310 309 309 307 305 303 301 299 298 298 298 298 298 298 298 298 298 299 299 299 299 298 298 299 299 299 299 299 299 299
337 337 338 338 337 336 335 333 332 332 332 333 335 336 337 335 334 335 335 334 334 335 334 334 334 334 334 334 333 333 332 332 331 330 329 329 329 330 330 329 328 328 326 323 322 320 318 317 315 314 312 311 311 311 310 309 308 307 306 304 302 300 299 298 298 298 298 298 298 298 298 298 299 299 299 299 299 299 299 299 299 299 299 299 299
337 337 338 338 338 337 336 334 333 332 333 334 335 336 337 336 335 335 335 335 335 335 335 334 335 335 334 334 333 332 332 332 331 330 329 329 329 329 329 328 327 326 325 325 324 322 319 317 315 313 312 311 311 310 309 308 307 305 304 303 300 299 299 298 298 298 298 299 298 298 299 299 299 299 299 299 299 299 299 299 299 299 298 299 299
338 338 339 339 339 337 337 337 335 332 333 335 334 336 337 336 335 335 335 336 336 335 335 335 334 334 333 332 333 332 331 331 331 330 329 328 328 327 327 327 326 326 325 325 324 321 319 317 314 312 311 310 310 310 309 308 306 303 302 301 299 299 299 298 298 298 299 300 299 298 298 299 299 299 299 299 299 299 299 299 299 298 299 299 299
339 339 340 340 339 338 338 339 338 334 333 334 335 336 337 336 335 335 335 336 336 335 334 334 333 331 330 330 331 330 330 329 329 329 328 327 327 327 326 326 326 325 324 324 322 319 318 317 313 312 311 310 310 309 309 309 306 302 301 301 300 299 298 298 299 300 300 301 300 299 298 298 299 299 299 299 299 299 299 299 298 299 298 298 298
341 341 341 340 339 339 338 339 339 337 334 334 336 337 337 336 335 334 335 335 335 334 334 332 331 330 330 330 330 329 328 328 328 328 329 329 328 327 326 326 326 325 323 323 321 318 318 316 313 311 311 310 309 309 309 308 305 303 303 302 300 300 300 299 300 301 302 302 302 300 299 298 298 298 298 298 298 298 298 298 299 298 298 298 299
342 342 341 340 339 339 339 339 339 338 336 335 336 336 336 336 335 334 335 335 335 334 333 332 330 330 330 330 330 329 328 328 329 328 328 328 327 326 326 326 325 323 322 321 319 317 317 316 314 312 311 310 310 310 309 307 305 305 304 302 300 301 303 302 302 302 302 303 302 300 299 298 298 298 298 298 298 298 298 298 299 299 299 300 301
342 342 341 341 340 340 339 339 339 338 337 337 336 335 336 337 336 335 335 335 334 333 332 331 330 330 329 330 330 329 328 328 329 328 327 327 327 326 325 324 322 319 318 318 317 316 316 317 316 315 313 313 313 311 307 305 306 306 304 302 301 303 304 305 304 302 302 302 301 301 300 299 298 298 298 298 298 297 298 299 300 300 301 301 302
342 342 342 340 340 340 340 339 339 339 339 339 337 335 336 337 337 336 335 334 333 333 332 330 330 330 329 329 328 328 328 328 328 327 326 326 325 323 321 319 317 316 315 316 315 313 314 316 317 316 315 315 312 309 306 305 306 305 303 302 303 304 305 305 305 303 303 303 303 302 301 299 298 298 298 298 298 298 299 300 302 302 302 302 302
342 342 342 340 340 341 340 340 339 339 339 340 339 337 336 337 337 336 335 334 333 333 331 330 330 329 329 328 328 328 327 327 327 326 325 323 321 319 317 315 313 314 315 315 313 311 312 315 316 316 315 313 309 305 305 306 305 304 304 303 303 304 305 305 306 306 306 305 305 304 303 301 300 300 300 300 301 301 302 303 303 303 303 302 302
343 342 341 341 341 341 340 340 339 339 339 339 339 338 337 337 337 336 335 334 333 332 331 330 330 329 329 328 328 327 326 325 325 324 323 321 318 317 315 312 311 311 312 313 312 310 311 314 316 314 312 310 307 303 304 306 305 304 305 305 305 305 304 305 306 306 306 306 306 306 305 304 303 302 301 302 303 303 304 304 304 304 304 303 302
343 343 341 341 341 341 340 340 339 338 338 339 339 339 338 338 337 336 335 334 333 332 331 331 330 328 328 327 327 326 325 324 325 324 322 320 318 315 312 309 309 310 309 310 311 309 310 312 314 312 309 308 307 304 303 305 305 305 305 306 306 306 305 306 306 307 306 306 306 307 306 305 305 303 302 303 304 304 305 305 304 304 304 304 303
344 343 341 341 341 341 340 340 339 338 338 338 339 339 338 338 337 336 334 333 333 332 331 331 330 329 328 327 326 325 324 324 324 323 322 319 316 313 309 307 308 308 307 308 308 308 309 309 311 311 308 307 307 305 304 305 305 304 303 303 303 305 306 307 307 307 307 306 306 307 307 307 306 304 304 304 304 304 305 304 304 304 305 304 304
344 343 342 341 341 342 340 340 339 338 338 338 338 338 337 337 336 335 334 333 333 332 331 330 330 328 327 325 325 324 323 323 323 322 320 317 313 309 307 306 307 306 306 307 307 306 305 305 308 310 308 307 307 305 306 307 306 304 304 304 304 304 305 305 306 306 306 307 307 307 307 307 306 304 305 305 305 305 304 304 304 305 305 304 303
344 344 342 341 342 341 340 340 340 339 338 337 337 337 337 336 336 335 334 333 333 332 331 330 329 328 326 324 324 323 322 322 322 320 318 314 309 306 305 305 305 304 304 305 304 303 303 304 307 309 308 307 307 305 305 306 305 305 307 308 308 306 305 305 305 305 306 307 307 308 308 306 304 304 306 306 305 304 304 304 304 304 304 303 303
344 344 343 342 342 341 341 340 340 339 338 337 337 337 337 337 336 335 334 333 333 331 330 330 329 328 326 324 323 322 322 321 320 318 315 310 307 304 303 303 303 302 303 303 301 301 303 305 308 309 308 307 307 307 306 305 305 306 308 309 308 306 306 306 306 306 307 307 307 307 306 304 304 306 307 307 306 304 303 303 303 303 303 302 302
345 344 343 342 342 342 341 340 340 340 339 338 337 337 337 337 336 335 334 333 332 331 330 330 330 328 326 324 323 322 321 320 319 316 312 308 305 303 302 302 302 301 301 300 300 302 304 306 308 308 307 307 308 308 307 307 307 308 308 306 304 304 305 305 306 307 307 306 306 305 304 303 305 306 307 306 306 304 303 303 302 302 302 302 302
344 344 343 342 341 342 342 341 340 340 339 338 338 337 336 336 336 335 334 333 332 331 331 331 331 329 326 323 322 321 321 320 318 315 311 307 304 302 302 301 301 301 300 299 300 303 305 307 307 307 307 307 308 307 307 308 308 307 306 305 305 305 305 306 308 308 306 304 304 305 304 304 305 305 306 306 305 303 302 302 302 302 302 302 302
344 344 343 342 341 341 342 341 341 340 339 338 338 337 336 336 336 335 334 332 332 332 332 332 332 330 326 323 322 322 321 319 317 314 311 307 304 302 301 301 300 300 300 299 300 303 305 306 307 307 307 307 307 307 308 308 307 306 306 306 306 305 306 308 308 305 303 303 305 306 305 305 305 305 305 305 304 303 302 302 302 302 302 302 302
344 344 344 343 342 341 341 342 341 340 339 339 338 337 336 336 336 335 334 332 332 332 332 332 332 332 328 325 323 322 322 320 317 314 310 307 304 302 301 300 300 300 299 299 300 303 305 306 306 307 307 307 307 308 309 309 307 305 304 303 302 303 305 305 302 301 303 305 305 306 305 305 305 305 305 305 304 302 301 302 302 302 302 302 302
343 343 344 343 342 341 341 342 342 341 340 339 339 338 337 336 336 335 334 332 332 332 332 332 332 332 330 326 323 322 322 321 319 315 311 307 303 301 300 300 299 299 299 299 299 301 304 306 306 306 307 308 307 307 308 308 306 303 302 300 299 299 299 298 300 303 305 305 305 305 305 305 305 305 305 304 303 301 300 301 302 302 302 302 302
341 342 343 343 343 341 341 342 342 341 340 340 339 338 337 336 336 335 333 332 332 332 332 332 332 332 330 327 324 323 322 322 320 316 311 307 303 301 300 300 299 299 299 298 299 299 300 303 304 303 304 307 307 307 306 305 303 300 299 299 298 298 298 300 303 306 306 305 305 305 305 305 305 305 305 303 302 301 301 302 301 301 301 302 302
342 343 343 343 343 342 341 342 342 341 340 340 339 339 338 337 336 335 333 332 332 333 332 332 331 331 331 328 325 323 322 322 320 315 310 306 303 300 300 299 299 299 299 299 299 298 298 299 301 300 300 302 304 304 303 301 300 298 298 298 298 298 300 303 304 305 305 305 305 305 306 306 305 304 303 302 302 303 303 302 302 301 301 302 302
341 342 342 342 341 341 341 341 341 341 340 340 339 338 338 337 336 335 333 332 332 333 333 331 330 330 331 328 325 324 322 321 319 314 309 305 302 300 299 299 299 299 299 299 299 298 298 298 298 298 297 298 299 300 299 298 298 298 298 298 298 298 299 301 302 303 304 304 305 306 306 305 305 304 303 302 302 303 303 302 302 301 301 302 302
340 341 342 342 341 340 340 341 341 340 340 339 339 338 338 337 336 335 333 332 333 333 332 330 329 330 330 327 325 323 321 320 317 313 308 305 302 301 299 299 299 299 299 302 302 300 298 297 297 297 297 297 297 297 297 297 297 297 298 298 298 298 298 298 299 302 304 304 305 306 305 305 304 303 303 303 303 303 303 303 303 302 301 302 302
Wind_Speed
17 15 14 13 10 8 8 8 7 7 8 9 11 11 10 8 6 6 8 6 5 7 9 7 7 11 12 7 5 5 6 6 7 8 8 7 5 2 2 4 4 4 4 4 4 2 1 1 2 3 3 4 4 4 3 4 5 6 7 7 7 8 8 8 8 8 9 10 10 11 11 12 12 13 13 14 14 14 14 13 12 11 11 11 11
16 14 14 14 13 12 11 9 7 9 10 12 10 10 11 10 7 9 12 10 8 9 10 9 10 13 12 8 5 4 7 7 6 8 7 6 3 1 5 7 8 6 4 3 2 1 1 1 2 3 3 3 3 3 3 4 5 6 6 7 7 7 7 7 8 8 9 10 10 11 11 12 12 13 14 14 14 14 14 13 13 12 12 12 11
15 12 13 15 17 17 16 13 13 14 13 16 12 12 12 12 10 10 12 10 7 9 11 12 13 12 10 9 5 5 7 8 6 6 6 4 2 3 8 9 9 8 6 2 1 1 1 1 2 2 3 3 3 3 3 3 5 6 6 6 6 6 6 6 7 8 9 10 11 11 12 13 14 14 15 14 14 14 13 13 13 13 12 12 12
16 12 13 16 17 19 19 19 18 17 16 17 13 12 12 12 11 10 11 10 8 11 13 14 14 12 11 10 6 6 8 8 6 5 3 3 1 4 8 9 8 5 4 1 2 2 1 1 2 2 3 3 3 2 2 3 4 5 6 6 6 6 6 7 8 9 10 12 13 14 14 15 16 16 16 16 15 15 14 14 13 13 12 12 12
18 15 15 17 17 17 19 19 17 16 18 17 12 14 15 12 11 11 11 11 10 12 14 14 14 12 11 10 7 7 9 9 7 6 6 6 4 4 5 7 7 2 2 3 1 1 1 1 2 2 2 2 2 1 1 2 4 5 5 5 6 7 8 9 10 11 12 14 14 15 15 15 16 16 16 16 16 16 15 14 14 13 13 12 13
19 18 17 17 18 17 17 18 15 15 17 16 14 17 18 14 12 13 13 13 12 12 13 14 13 12 11 9 8 9 11 10 7 6 8 8 4 4 4 5 5 2 3 7 2 1 1 1 2 1 2 2 1 0 1 2 4 4 5 6 7 8 9 10 11 12 13 14 14 14 15 15 16 16 16 16 15 15 15 14 14 13 13 12 13
18 20 19 17 18 17 15 16 14 15 15 15 16 16 16 15 11 13 15 16 15 15 14 14 14 13 12 10 10 11 11 8 7 6 7 6 4 4 6 6 7 7 9 9 3 2 1 2 2 1 2 1 1 1 1 2 4 4 5 5 6 7 8 10 11 12 13 13 14 14 15 15 15 16 16 16 15 14 13 13 13 13 12 11 12
18 19 20 17 17 16 15 14 14 15 14 14 14 12 13 14 12 14 16 15 16 16 15 14 14 13 13 11 10 12 11 9 9 7 7 8 7 5 3 5 9 12 13 9 3 3 2 2 2 2 2 1 0 0 2 2 3 4 5 6 6 7 9 10 11 12 13 13 14 14 15 16 16 16 15 15 15 14 13 13 12 12 11 11 12
20 18 19 17 15 15 15 15 14 14 13 12 12 12 12 14 15 14 13 14 15 15 15 13 13 13 12 11 12 13 13 12 11 8 9 13 13 12 10 8 12 14 15 10 2 2 2 2 3 2 2 2 1 1 2 2 3 4 5 6 7 8 9 11 12 13 13 13 14 15 16 17 17 16 15 15 15 14 14 13 12 12 11 11 11
22 18 18 18 15 13 14 15 14 13 12 11 11 11 12 14 15 11 9 14 14 13 14 13 12 12 12 12 13 12 11 12 11 9 13 15 13 15 15 14 13 12 12 11 5 3 3 3 3 3 2 1 1 2 2 2 3 4 5 6 7 8 9 11 12 13 13 13 15 16 16 17 17 16 16 15 15 14 14 13 12 12 12 11 11
22 20 19 18 15 13 14 14 13 13 13 12 11 11 12 13 11 8 10 14 13 12 12 12 12 12 12 13 13 11 11 13 13 11 12 14 13 13 13 13 11 7 8 12 11 6 4 4 4 3 1 2 2 2 3 3 3 4 6 7 7 9 10 11 12 12 13 14 15 16 17 17 17 16 16 15 15 14 13 13 12 12 12 12 12
23 22 21 20 17 14 15 15 14 14 14 13 12 11 12 14 12 8 10 13 13 12 12 13 13 12 12 12 13 12 12 15 14 11 10 14 14 12 12 12 9 7 11 12 14 10 6 4 5 4 2 3 4 3 3 4 3 3 5 6 7 9 10 10 11 12 13 14 15 16 17 17 17 16 16 15 14 14 13 12 12 12 12 12 12
25 23 22 22 19 17 17 17 15 14 14 13 13 13 13 14 13 11 11 13 14 13 12 13 13 13 14 13 12 13 15 15 14 11 10 15 14 11 13 12 10 9 10 12 13 13 10 6 6 6 3 4 5 4 5 5 3 3 6 6 7 9 10 11 11 12 13 14 15 16 17 17 17 16 15 14 14 13 12 12 11 11 12 12 13
26 24 22 24 22 19 18 16 15 14 14 13 14 15 15 14 13 12 12 12 13 14 13 14 14 14 13 14 14 14 17 17 15 14 11 13 13 10 13 14 12 11 10 12 14 14 12 8 4 4 8 8 7 6 7 7 4 4 7 7 7 9 10 11 11 12 13 14 15 16 17 17 16 15 14 14 13 12 11 11 11 11 12 13 13
25 24 22 24 23 20 18 16 15 15 14 14 15 15 15 14 13 12 12 12 14 15 15 15 15 14 13 14 14 13 15 16 16 17 15 13 13 11 13 13 11 12 11 9 11 11 10 8 3 6 11 11 8 7 8 9 7 8 10 8 6 9 11 12 13 13 14 15 15 16 17 17 16 15 14 13 12 11 10 10 10 11 12 13 14
24 22 21 24 24 21 20 18 16 15 15 15 15 15 15 15 13 13 13 13 15 16 16 15 16 16 14 13 12 11 13 14 15 17 16 15 15 13 14 12 10 13 13 9 9 7 7 9 8 9 11 11 9 7 8 10 9 11 13 8 6 10 12 13 14 14 15 15 16 16 16 16 15 14 13 12 11 10 10 10 10 11 12 13 14
24 23 21 22 24 23 21 20 18 16 16 15 15 15 15 14 13 13 14 13 14 15 16 17 18 17 14 11 11 11 12 11 10 14 16 16 16 15 16 13 10 14 16 11 8 7 7 11 13 12 10 10 10 8 9 10 10 13 13 8 7 11 12 14 15 15 16 16 16 16 16 15 14 13 12 11 10 10 10 10 10 11 12 13 14
24 24 22 21 23 23 22 21 20 18 16 16 16 16 15 14 14 14 14 15 15 15 16 19 20 18 15 13 11 9 8 7 8 11 14 15 14 16 17 15 11 14 17 13 8 10 10 11 15 15 11 9 10 10 10 9 11 14 12 9 10 13 13 15 16 16 16 16 16 16 15 14 13 12 11 10 10 9 9 10 11 12 12 13 14
25 25 23 21 22 23 23 22 21 19 17 17 17 16 15 14 15 14 14 16 17 16 16 19 22 21 18 17 15 11 8 8 8 9 12 13 13 15 17 16 13 13 16 15 8 12 14 13 15 16 13 11 10 10 10 10 14 15 12 11 11 13 14 15 16 17 17 16 16 15 14 13 12 11 10 10 9 9 9 10 11 12 12 13 14
25 26 25 23 22 22 24 24 22 20 18 17 17 17 17 16 16 16 15 17 19 18 17 18 21 21 20 19 19 16 12 12 11 9 8 9 11 15 17 17 16 13 14 15 11 12 17 16 16 16 15 14 11 9 9 11 16 17 15 13 12 13 14 16 17 17 17 16 15 15 13 12 11 10 10 9 9 9 9 10 11 12 12 13 14
25 27 26 25 24 23 23 25 24 22 19 17 17 18 18 18 17 17 17 17 19 20 19 19 18 19 19 19 19 17 16 15 13 11 10 9 10 13 16 16 17 16 14 15 14 13 17 19 17 15 14 14 14 11 7 10 16 17 15 13 12 13 15 16 17 18 17 16 15 14 12 11 10 10 9 9 9 9 10 10 10 11 12 13 13
28 28 27 26 26 25 24 24 24 24 22 18 17 19 19 19 19 18 18 18 19 19 19 19 18 18 17 17 17 17 18 16 14 14 14 12 11 12 15 16 17 17 15 14 14 14 17 20 20 17 14 14 16 14 9 11 16 16 13 12 13 14 15 17 18 17 16 15 14 12 11 10 9 9 9 9 9 9 9 10 10 11 11 12 12
28 28 27 26 28 27 25 24 24 24 24 21 18 19 20 20 19 19 19 18 19 19 19 19 19 18 17 17 16 15 15 15 15 15 14 13 12 11 14 17 17 17 16 14 12 13 16 20 22 18 14 14 18 16 12 14 18 17 14 14 15 15 15 17 17 17 15 14 13 11 10 10 9 9 8 8 8 9 9 9 10 10 10 11 12
27 28 28 28 29 29 26 25 25 26 25 23 20 20 20 20 20 21 20 19 20 20 20 20 20 19 18 17 17 15 15 16 15 15 14 13 12 12 13 15 15 17 17 16 13 12 17 21 22 17 11 14 17 16 14 17 19 19 18 17 16 15 15 16 16 15 14 13 12 11 10 9 9 9 8 8 8 8 8 9 9 9 10 11 12
29 30 30 30 30 29 28 28 27 27 26 24 22 22 21 21 21 21 21 20 21 21 20 20 20 19 19 18 18 17 18 18 15 15 15 14 15 16 15 13 13 14 16 17 14 12 17 20 19 15 10 13 15 15 16 19 20 20 20 18 15 14 14 15 15 14 13 12 11 10 9 9 9 8 8 8 8 8 8 8 8 9 10 11 12
32 32 31 31 31 31 30 29 29 28 27 25 23 23 23 22 22 21 21 21 21 21 21 20 20 20 20 20 19 18 18 18 17 17 17 17 17 18 17 15 13 12 13 13 13 12 16 17 16 14 12 12 15 16 19 21 21 21 19 16 15 14 14 14 13 13 12 11 10 10 9 9 9 8 8 8 8 8 8 8 8 9 11 12 14
33 33 31 31 32 32 31 30 30 29 28 26 25 25 24 23 22 22 22 21 22 22 21 20 20 20 21 20 20 20 17 16 18 19 18 18 17 16 16 16 14 12 11 12 12 13 14 13 14 14 12 14 16 17 21 23 22 20 17 14 14 14 14 13 12 12 12 11 10 9 9 9 9 9 8 8 8 8 8 9 9 11 12 13 15
31 32 31 31 32 33 32 32 31 30 29 28 27 26 25 24 24 23 22 22 22 22 21 21 20 21 21 21 21 20 18 17 20 21 20 19 18 17 16 16 15 13 12 13 15 15 13 10 12 14 14 15 18 19 22 22 19 18 15 13 14 14 13 11 11 12 11 10 9 9 9 9 9 9 9 8 9 9 9 10 11 12 13 15 16
30 31 31 30 31 32 31 31 31 31 31 30 29 27 26 26 25 24 23 22 22 22 21 21 21 21 21 21 21 21 20 20 22 22 21 20 20 20 19 17 16 15 14 14 15 16 14 12 14 16 15 17 20 21 21 19 16 15 13 11 14 14 12 11 10 11 10 9 10 9 9 9 9 10 9 9 10 10 11 11 12 13 15 16 17
30 29 30 31 31 32 31 29 30 32 32 31 30 29 27 27 26 25 23 22 22 22 22 22 22 22 23 23 23 24 23 23 23 21 20 19 19 20 19 17 17 18 17 15 14 11 12 14 16 16 16 19 21 20 19 17 14 13 12 10 13 14 12 11 10 9 9 9 10 10 10 10 10 11 11 11 11 12 12 13 14 15 16 17 18
31 29 31 32 32 32 32 31 31 32 32 32 31 30 29 28 28 26 24 23 23 23 23 23 23 22 21 20 20 21 22 22 22 20 18 17 17 15 15 18 19 20 19 17 12 8 10 16 18 15 14 18 20 19 17 16 15 14 12 11 13 14 11 11 10 9 10 11 11 11 11 11 11 12 12 12 13 13 14 15 15 16 17 18 18
32 30 31 32 32 33 34 33 32 32 33 33 33 31 30 30 29 28 27 25 25 25 25 24 22 20 18 17 17 17 17 17 16 18 18 19 19 18 18 22 24 23 21 19 14 9 9 15 18 15 14 16 18 17 16 16 15 13 12 13 15 13 10 11 11 10 11 13 13 13 13 13 12 13 13 13 14 14 15 15 16 17 18 19 19
32 32 32 30 30 33 35 35 34 33 33 34 35 34 32 31 30 30 29 28 27 25 25 23 21 20 20 19 18 17 15 15 15 18 21 22 23 24 25 26 26 24 22 19 16 13 12 12 16 17 17 17 18 16 14 13 14 13 14 16 15 13 12 11 11 12 13 14 14 14 15 15 14 15 15 15 15 16 16 16 16 18 21 21 20
33 34 34 31 29 32 34 35 36 34 32 32 35 35 34 33 32 31 30 30 28 25 24 24 20 20 22 23 22 20 18 20 22 24 27 28 29 29 28 26 25 22 20 20 18 17 16 15 17 20 20 20 18 16 12 11 13 16 17 16 12 12 13 11 11 14 14 14 13 14 15 16 16 17 17 17 17 18 17 16 16 19 22 22 21
35 35 35 31 30 32 33 34 34 33 32 31 34 36 36 35 34 32 30 29 27 25 25 24 20 20 23 25 26 26 24 26 29 30 31 29 27 27 25 23 21 19 18 20 20 19 18 19 20 21 21 19 17 14 11 12 15 16 16 13 10 11 13 12 14 15 14 13 15 15 15 15 15 16 16 16 16 17 17 16 17 20 23 23 21
37 37 34 30 31 34 35 34 33 33 33 32 34 37 37 37 35 33 30 29 27 26 24 23 21 21 23 25 25 25 26 28 29 29 27 24 21 21 20 19 19 19 17 17 17 19 20 20 20 19 18 17 14 11 11 13 16 15 12 10 9 11 13 13 14 14 14 15 17 16 16 16 17 18 17 16 16 16 15 16 17 21 24 23 21
40 38 34 31 33 36 37 36 34 33 33 34 35 37 38 38 36 33 32 30 29 27 25 23 22 22 24 26 24 22 24 27 28 26 25 23 22 22 19 17 18 19 19 17 17 21 21 19 17 14 14 14 13 11 13 13 14 13 11 10 8 9 10 11 12 13 14 16 16 17 19 20 20 21 20 19 19 18 17 17 18 23 25 24 21
42 39 33 33 37 39 38 38 36 34 35 37 37 36 38 38 36 34 32 30 29 28 27 25 24 24 26 28 25 22 25 28 29 27 26 25 25 23 20 19 19 20 22 21 21 22 22 19 15 12 14 15 13 11 12 12 13 12 10 9 9 10 11 12 13 13 13 14 15 18 20 21 21 22 21 20 19 19 19 19 21 25 25 22 22
42 40 35 34 39 41 40 40 38 35 36 38 38 36 37 38 37 35 33 30 29 29 29 28 26 24 26 28 26 24 26 29 29 28 27 26 26 24 22 21 21 22 23 24 23 22 21 18 14 13 15 16 14 12 9 11 15 16 13 12 11 10 10 10 10 11 12 14 16 18 19 20 20 22 21 19 18 18 19 21 23 24 22 21 24
43 42 38 37 39 41 40 39 37 35 37 38 38 38 38 37 36 35 33 32 31 29 28 27 25 24 26 27 26 25 27 29 29 27 27 26 25 25 24 24 24 24 23 22 22 21 20 18 16 15 16 16 15 13 11 12 16 15 12 10 11 12 11 10 10 11 13 14 14 15 16 19 21 21 20 18 17 18 20 22 22 22 21 23 28
43 44 41 39 40 40 39 39 37 37 39 41 40 40 39 38 36 35 34 34 33 29 27 27 26 26 26 26 26 26 27 28 28 26 26 25 24 25 25 26 26 25 23 21 19 19 18 17 16 16 16 15 15 14 14 15 15 11 8 9 12 12 11 10 10 9 9 11 13 15 17 20 22 19 17 17 18 19 21 21 20 21 23 26 29
43 44 43 40 40 41 40 41 40 40 41 43 43 42 40 38 37 36 35 36 34 30 29 29 28 26 25 25 26 26 27 28 27 26 25 25 25 25 26 26 25 24 22 20 18 18 17 16 17 17 15 15 15 14 14 14 10 8 10 13 13 12 10 9 9 7 7 11 15 18 19 19 18 16 16 17 19 20 21 21 22 24 25 26 26
43 43 44 42 40 40 41 42 42 42 43 43 44 43 41 39 38 37 36 36 35 32 31 31 29 26 25 26 26 27 28 28 27 26 26 26 25 25 26 26 24 22 20 20 19 18 17 16 17 17 15 15 16 14 13 12 10 11 14 15 13 11 9 9 9 8 9 12 15 17 18 14 14 16 17 18 19 21 22 23 24 24 24 24 24
45 44 45 44 42 41 42 43 43 44 44 44 45 44 41 39 39 38 37 37 36 32 32 33 30 27 26 27 27 28 29 29 29 28 27 26 26 26 25 25 23 21 20 20 20 19 17 17 17 16 16 17 15 14 14 13 13 14 14 12 9 8 8 8 10 12 12 11 12 15 15 13 14 16 18 18 20 22 24 25 24 23 23 23 25
47 47 47 47 45 42 42 44 44 45 45 45 46 46 43 41 41 40 39 38 36 33 33 34 31 27 26 28 29 29 29 29 29 29 28 27 26 26 25 24 22 21 20 21 21 19 19 19 17 16 17 17 14 14 16 16 15 14 13 10 8 7 8 11 14 14 11 9 11 14 15 14 14 16 19 20 22 24 26 25 23 22 23 25 27
48 49 49 49 48 45 44 45 45 44 45 47 47 47 46 44 44 44 42 38 35 34 35 35 31 26 25 27 29 30 30 30 30 29 28 28 27 26 25 24 22 21 20 21 22 21 20 21 20 17 16 16 15 15 17 18 17 15 14 13 11 11 13 14 14 12 8 8 10 13 16 15 15 18 21 22 25 27 26 24 22 23 24 26 28
49 50 51 50 50 48 47 47 46 45 46 48 48 48 46 46 47 47 43 39 36 36 36 34 29 26 26 27 29 30 30 30 30 29 29 28 27 27 26 25 24 21 20 21 23 22 21 23 24 21 18 17 19 20 19 19 17 15 13 14 13 13 14 13 10 8 7 9 10 12 16 16 16 19 22 24 27 27 24 22 22 24 25 26 27
50 51 51 51 51 50 49 48 47 47 48 49 50 49 47 47 48 47 44 40 38 38 37 34 29 27 26 27 29 30 30 30 29 28 28 27 27 27 27 26 24 22 22 23 23 23 23 25 25 23 21 20 21 22 21 19 17 15 13 13 12 11 10 10 8 7 7 9 10 13 15 16 15 17 22 27 27 24 23 23 25 26 25 24 27
51 52 51 51 51 51 50 49 47 48 49 50 50 49 48 47 49 48 45 42 40 39 37 34 30 28 28 28 30 30 30 30 28 27 27 27 27 27 27 27 25 24 23 23 23 24 25 26 25 24 23 23 22 21 20 18 16 15 14 12 10 9 8 8 8 7 8 9 11 13 14 14 16 19 24 27 25 23 24 25 28 30 26 23 27
52 53 52 51 52 52 51 50 48 49 50 51 50 48 48 48 49 49 47 43 41 39 35 34 32 30 29 30 30 29 30 29 28 26 26 26 26 27 28 27 26 25 25 23 22 24 26 26 25 25 24 24 24 22 20 18 16 16 14 13 11 10 10 10 10 9 8 8 9 12 13 15 20 22 24 25 25 25 24 25 29 32 27 25 27
52 53 52 52 52 52 52 51 48 49 51 52 51 49 47 46 48 49 48 45 42 39 36 35 33 29 27 28 28 28 29 28 27 26 25 24 25 27 27 27 26 26 25 22 21 23 25 25 25 25 23 23 23 22 20 19 17 17 15 13 12 12 12 12 11 10 8 7 9 13 16 19 22 20 20 23 26 26 23 25 31 32 28 26 27
Wind_Direction
207 222 194 195 219 235 253 251 221 223 235 229 222 217 227 227 188 205 243 252 242 231 216 217 218 224 240 221 189 245 228 201 206 213 213 207 203 214 303 302 294 294 299 306 313 324 334 2 19 12 15 16 14 20 33 56 68 71 72 70 67 63 57 52 48 44 37 29 26 24 22 20 18 15 11 9 7 5 3 3 2 1 358 353 352
205 222 186 190 213 216 234 245 223 212 228 245 226 196 215 220 198 207 226 230 224 228 222 218 219 219 234 237 195 202 226 227 212 208 216 213 201 340 347 330 314 299 285 288 301 328 27 8 18 11 8 13 13 20 34 60 72 73 74 71 67 63 58 53 48 44 37 29 25 23 21 17 16 13 11 9 5 3 0 359 358 356 356 352 349
212 222 183 193 207 203 210 217 220 207 212 242 226 191 213 216 205 213 218 219 228 239 221 214 223 222 229 238 212 191 212 222 224 222 228 218 164 12 358 352 332 306 283 263 150 116 66 14 5 3 358 11 18 21 35 63 79 77 75 71 67 62 56 52 47 43 35 30 24 20 18 13 12 9 7 6 2 0 357 357 355 352 351 349 347
210 213 188 201 206 204 202 203 218 206 201 231 217 190 211 211 203 215 217 211 225 230 214 212 224 227 230 232 229 218 203 191 205 215 231 269 4 12 354 354 346 318 280 259 115 89 64 5 345 347 351 14 22 21 39 71 84 80 75 67 60 52 44 40 36 32 27 25 22 17 15 10 7 4 1 359 356 355 353 353 352 348 346 344 346
203 204 200 208 205 211 208 204 215 206 205 218 204 197 202 197 202 210 210 209 224 228 219 219 223 228 227 220 224 215 190 171 178 180 191 243 305 1 347 344 342 349 355 349 62 66 36 337 331 336 344 12 24 27 88 91 91 80 69 57 43 37 30 29 26 24 24 22 19 14 11 6 3 360 356 353 351 349 348 347 346 345 344 342 343
197 199 202 209 206 214 211 208 212 207 211 207 200 212 202 187 198 203 206 211 221 227 224 224 225 228 223 222 226 198 181 180 186 171 182 226 281 323 304 320 315 267 323 335 335 335 347 290 310 320 332 5 3 174 126 99 97 82 64 47 34 32 25 24 23 22 22 20 15 9 5 1 358 354 350 349 346 344 342 341 339 339 342 344 341
197 198 200 205 208 214 211 210 209 209 218 209 207 222 206 189 193 204 212 213 216 224 225 226 227 228 226 231 224 192 177 181 192 167 165 221 253 273 289 308 299 286 302 314 293 255 275 261 289 313 323 359 319 219 122 88 85 73 56 45 32 27 21 19 19 18 20 16 10 3 358 356 353 350 347 344 342 339 337 335 334 334 337 342 341
204 200 197 201 210 215 210 209 209 213 221 217 214 220 205 190 190 205 217 216 216 223 225 226 226 229 230 226 208 186 166 164 188 177 170 203 204 213 277 309 294 293 299 300 265 237 266 266 287 303 308 337 356 136 94 70 65 56 43 36 23 17 12 12 13 15 15 10 4 357 352 350 349 348 345 342 339 336 334 332 331 330 332 337 339
210 203 197 198 211 218 213 212 214 217 219 216 214 207 202 197 197 204 218 223 221 224 225 225 225 225 224 212 191 178 169 170 181 178 186 196 194 206 220 233 260 280 288 287 236 219 279 283 289 292 291 321 5 7 47 51 46 47 37 27 16 11 7 6 8 10 9 3 357 352 348 346 346 346 343 341 338 335 332 330 329 327 328 329 331
212 204 200 201 211 216 214 218 217 217 215 215 215 207 210 213 204 198 217 228 225 226 225 222 222 219 215 206 193 186 181 178 179 188 202 207 213 226 232 233 247 267 275 279 272 252 282 279 285 289 277 324 8 359 9 21 20 26 24 16 9 4 1 1 3 6 3 358 352 347 344 344 343 342 341 340 336 334 332 329 329 328 327 325 323
213 204 203 204 208 209 211 218 216 216 216 217 219 216 223 227 216 203 221 228 220 221 219 211 212 211 211 205 198 199 191 184 188 197 208 220 228 229 235 243 253 245 227 258 276 275 279 282 288 274 220 30 8 353 351 353 6 17 12 6 3 358 355 357 359 0 357 352 347 342 341 341 341 340 339 338 335 333 332 329 328 329 328 327 325
212 206 205 205 207 207 209 218 219 219 219 218 219 224 229 233 231 218 224 224 206 205 206 199 200 196 198 199 196 202 201 199 196 189 211 236 237 225 231 246 250 220 198 230 263 274 281 282 281 261 167 34 359 350 341 333 342 5 2 357 357 353 350 352 355 355 351 346 342 339 339 339 339 340 338 336 335 333 332 329 328 331 330 330 330
213 212 208 206 207 207 210 218 221 221 223 221 219 226 231 234 236 216 210 217 201 197 200 198 198 190 189 194 201 207 206 206 196 186 222 249 252 231 226 237 237 228 213 211 235 262 280 286 288 291 313 343 333 327 324 326 330 343 351 351 353 351 346 348 350 348 345 341 339 339 338 338 338 339 337 335 335 333 331 331 332 334 333 332 331
212 218 212 206 206 209 213 218 222 223 225 223 220 228 232 233 238 217 194 204 208 205 202 200 202 202 202 202 210 217 214 210 197 189 209 243 261 240 217 231 237 238 234 214 222 243 265 282 293 289 294 303 307 310 314 319 320 318 330 335 341 346 343 344 347 344 341 338 338 339 337 337 338 337 336 335 335 331 331 334 336 336 334 335 334
211 217 212 204 205 210 215 217 220 224 225 223 223 228 232 230 233 221 194 192 203 201 196 199 203 204 208 208 211 217 217 216 208 198 199 221 247 237 223 233 234 239 244 235 237 237 244 263 232 212 253 274 286 300 308 309 312 310 314 322 326 336 341 343 344 340 338 337 339 338 336 336 337 336 335 334 333 331 334 338 337 336 336 336 337
210 215 210 204 204 208 214 219 221 225 226 225 226 229 234 233 227 217 202 191 195 199 199 199 199 201 201 201 205 208 216 228 223 209 204 216 227 225 233 238 218 231 247 255 260 246 218 240 247 224 231 247 260 282 295 297 306 302 303 313 318 326 336 339 340 337 335 338 338 337 336 337 337 335 334 333 332 334 338 340 338 337 337 336 338
212 216 215 209 207 208 214 221 224 227 228 226 229 232 235 238 230 216 208 201 196 202 208 200 198 209 210 193 190 205 225 234 216 201 203 216 218 214 230 238 213 226 248 258 257 246 212 221 248 254 246 242 238 241 257 272 286 288 293 306 314 321 331 334 336 334 334 338 338 337 336 336 336 334 333 332 333 337 339 338 336 336 336 336 338
212 216 220 217 210 210 214 222 225 227 230 230 230 234 238 238 231 219 210 209 203 200 205 200 198 212 216 201 197 210 222 209 189 193 202 212 216 217 230 238 220 220 245 261 243 232 229 219 240 261 268 259 245 235 237 252 268 275 290 307 312 319 327 332 333 332 333 338 337 337 337 337 336 334 332 332 335 338 338 335 334 334 335 337 339
211 213 219 220 214 213 216 221 227 228 230 232 230 231 238 236 229 223 214 208 208 205 203 200 201 208 211 208 213 217 196 179 187 197 203 209 210 218 233 243 239 222 234 255 243 223 233 229 238 258 269 269 264 247 234 240 254 264 283 302 310 317 323 328 329 329 333 337 337 337 338 337 336 335 332 333 336 337 335 334 334 335 336 338 340
208 209 214 220 220 219 218 219 225 228 230 232 232 232 236 236 230 226 220 211 210 211 208 206 206 208 210 210 215 219 206 196 200 198 203 213 209 217 232 240 247 243 232 239 235 224 236 239 242 256 268 276 276 258 238 236 247 260 278 292 304 314 321 324 324 328 333 336 337 336 338 338 336 335 332 332 335 335 334 334 334 335 337 337 338
207 209 211 217 222 224 221 220 222 227 232 233 234 235 234 236 233 227 224 218 214 215 215 217 215 211 212 214 215 220 223 221 220 223 227 233 228 226 231 231 241 257 254 237 228 225 239 246 247 251 265 279 279 271 256 237 247 263 277 289 303 313 320 323 323 327 331 334 335 336 338 338 336 333 330 331 333 333 332 333 334 334 335 335 335
207 209 211 213 219 224 223 222 222 224 230 233 233 236 236 235 235 231 228 224 221 220 220 223 224 220 218 221 222 222 227 229 228 235 238 241 247 240 234 237 247 262 267 253 235 222 234 250 250 245 250 264 269 267 258 238 245 263 278 290 303 313 319 321 321 323 327 331 334 336 337 336 334 331 329 331 330 329 329 330 332 332 332 334 334
209 210 213 212 215 222 223 222 223 221 225 230 231 235 237 235 235 234 230 227 225 223 222 224 227 228 227 229 229 224 229 232 225 231 236 233 243 245 239 247 258 266 271 269 251 221 223 243 250 249 244 245 256 262 251 239 245 260 276 290 301 310 315 316 316 319 324 328 332 335 336 334 333 331 331 331 328 327 327 328 330 331 333 334 336
211 210 213 212 214 220 221 220 222 221 221 225 227 232 237 236 234 235 231 228 228 226 225 228 229 230 228 228 227 218 222 232 226 226 234 234 237 243 244 246 252 260 263 261 254 226 217 232 249 259 244 225 244 259 247 239 248 261 275 287 296 304 308 310 311 314 320 327 332 334 334 334 333 333 334 330 327 326 326 327 329 332 334 335 337
212 212 213 214 215 219 218 217 219 221 221 222 224 230 235 235 233 235 233 229 230 231 231 232 232 231 228 226 227 219 217 224 222 219 228 236 238 240 242 244 247 253 251 246 247 228 217 229 244 257 250 219 226 246 246 244 250 261 273 284 291 298 303 306 307 311 319 327 332 332 332 335 334 335 336 331 329 327 326 328 330 331 332 334 338
216 216 216 216 215 218 218 216 217 221 222 221 223 227 233 235 234 235 234 232 233 233 233 235 234 232 231 228 226 224 221 221 220 220 223 229 237 242 240 240 246 254 250 245 249 235 222 228 233 240 249 228 217 231 244 249 254 263 275 285 290 297 303 305 306 310 319 328 331 331 333 336 337 338 338 334 331 329 328 328 327 327 330 334 339
217 219 219 216 215 217 219 217 217 220 221 220 221 225 230 232 233 234 234 232 233 233 235 237 235 233 233 231 227 226 226 223 224 227 224 225 237 245 243 239 242 254 249 235 237 231 217 219 227 231 234 225 220 228 240 250 260 270 279 287 292 297 301 304 307 312 321 328 328 330 335 339 342 342 339 336 333 331 328 324 321 323 329 334 339
219 220 222 219 215 217 219 218 217 217 220 221 221 225 228 229 229 231 231 230 230 232 234 235 234 231 231 232 231 230 227 225 231 233 228 225 230 235 240 240 239 248 246 229 226 223 214 224 234 226 220 220 223 230 243 257 268 276 280 285 290 296 301 305 309 314 320 326 326 331 339 343 344 342 339 335 332 329 324 320 319 321 328 332 335
222 222 223 220 216 216 217 217 216 215 217 220 221 224 227 226 227 228 228 229 229 229 229 230 229 228 228 230 230 229 226 225 231 233 229 228 229 231 234 233 230 240 246 244 242 233 232 244 233 216 211 218 227 238 252 266 275 280 279 281 288 296 304 308 309 313 317 321 326 333 341 346 345 340 337 333 328 325 321 318 318 321 325 329 330
223 222 221 219 216 215 213 212 214 215 215 218 221 223 225 224 225 226 226 224 224 225 225 227 229 232 234 232 230 230 227 224 227 230 229 232 234 234 229 221 223 236 242 250 259 254 246 239 221 214 214 216 229 245 257 268 279 284 283 283 292 300 305 305 306 309 311 315 325 334 342 346 342 337 333 330 325 322 320 318 319 322 323 324 327
222 220 217 217 216 213 210 210 214 216 214 216 220 221 223 223 222 223 223 219 219 222 225 229 235 238 238 233 232 236 233 225 223 226 232 239 243 239 228 221 228 237 236 238 253 267 248 223 210 215 221 216 227 245 258 272 284 289 289 292 295 296 302 306 304 306 310 317 326 333 339 341 338 334 329 326 323 319 318 318 319 321 323 324 325
220 220 218 217 216 213 211 210 214 217 215 214 218 220 222 224 222 221 220 217 217 223 229 234 234 232 234 236 238 242 237 226 223 229 237 242 240 234 227 226 233 238 234 230 236 241 228 214 207 212 218 213 223 244 263 277 286 290 290 292 293 293 304 310 306 309 313 315 321 327 332 336 334 330 326 323 321 318 317 318 320 325 329 328 327
219 218 218 218 215 213 212 211 213 217 216 214 216 219 220 222 223 220 217 216 219 225 230 232 228 221 223 232 240 245 241 230 225 230 234 233 229 227 228 231 235 235 229 225 227 227 223 214 207 211 219 219 228 250 267 272 278 284 284 288 295 299 308 313 308 311 309 306 314 322 326 330 330 326 324 321 319 318 318 318 322 331 335 334 332
219 217 216 217 213 212 213 212 213 216 217 214 215 217 219 220 221 219 216 216 219 223 224 225 223 215 214 217 225 234 239 233 226 225 229 230 229 231 234 236 234 230 223 220 219 221 225 220 213 218 227 233 243 256 259 251 256 269 278 286 294 295 298 300 294 297 298 300 313 321 323 327 327 323 320 319 318 317 318 318 322 331 336 337 332
217 216 216 216 212 211 214 213 213 215 215 214 214 216 218 219 220 220 218 217 219 220 222 223 220 216 218 219 218 218 223 228 227 226 229 233 234 236 238 233 226 218 218 224 221 220 229 230 225 229 234 241 250 250 240 239 246 259 277 282 278 278 282 281 282 290 299 307 312 318 323 328 326 322 319 317 316 314 313 316 318 325 332 335 329
215 216 217 214 209 211 216 215 214 213 212 213 214 215 216 218 220 220 218 216 216 218 220 221 219 218 225 230 226 219 219 226 230 229 230 232 233 235 235 227 220 213 214 224 223 219 229 234 232 235 241 250 254 230 215 239 256 266 283 282 259 256 264 274 284 292 299 304 306 309 317 324 326 327 325 321 321 320 316 315 316 322 329 329 324
215 216 215 211 209 212 217 217 214 212 212 214 216 215 215 218 220 220 219 216 215 217 221 222 221 220 225 233 234 227 224 229 234 233 230 229 228 230 229 222 216 213 211 217 220 218 225 233 232 231 236 248 254 224 206 233 262 275 290 294 281 268 266 273 280 281 287 297 303 305 310 317 324 328 329 325 324 325 324 321 320 323 326 323 319
214 215 212 209 210 213 216 216 214 212 212 215 217 217 216 217 219 219 219 218 214 215 220 221 221 222 226 232 236 231 227 231 237 236 232 230 229 228 225 216 210 211 212 214 219 222 224 229 231 225 221 231 245 235 210 218 242 252 260 270 280 287 288 288 289 288 292 299 300 299 304 311 316 320 324 323 322 325 328 326 322 321 322 317 315
213 214 211 209 212 214 215 216 214 211 213 216 218 219 217 217 219 217 217 218 215 214 218 220 222 227 229 231 234 230 228 233 238 238 235 234 230 226 222 214 210 216 219 220 224 228 227 225 225 225 221 222 231 234 217 216 232 241 248 250 251 261 276 287 295 294 293 295 295 296 300 302 305 311 317 320 325 329 328 323 320 321 321 316 317
213 214 213 210 213 215 216 217 215 211 212 216 218 219 218 216 216 216 216 217 217 217 218 217 220 227 229 228 230 229 230 236 239 238 237 237 232 226 221 216 215 222 228 227 228 230 229 223 218 222 223 221 226 228 219 223 236 248 263 259 242 240 247 252 261 271 282 293 296 292 289 291 298 306 313 322 331 330 324 322 322 323 322 319 320
213 214 214 213 213 215 215 216 214 212 212 215 217 218 218 215 214 215 215 216 217 217 215 213 218 226 227 226 228 229 231 236 239 238 238 237 234 228 223 220 222 228 232 231 226 224 223 217 211 215 219 222 230 229 221 228 240 251 262 251 243 252 262 263 266 275 289 293 283 274 277 290 302 309 316 326 331 326 324 326 325 322 320 319 321
213 213 213 213 213 213 213 213 214 214 214 216 218 219 219 216 215 214 214 215 215 214 211 213 220 227 225 225 228 229 231 235 237 237 236 235 232 229 227 228 232 235 234 230 223 218 216 210 206 211 217 219 225 229 234 242 243 233 237 247 257 267 272 275 279 282 284 278 273 276 286 299 311 322 328 329 327 327 328 327 322 320 321 322 324
211 212 211 211 210 211 212 212 214 215 215 217 219 221 221 220 217 215 214 213 213 211 210 216 226 232 227 226 228 227 229 234 235 234 234 233 231 230 230 232 237 238 234 228 223 216 211 208 208 211 217 219 221 229 240 243 235 229 241 254 262 261 261 272 278 275 273 273 277 288 299 314 331 333 329 324 324 327 327 324 323 326 330 330 329
210 211 210 210 209 209 211 213 214 215 215 217 219 220 221 221 220 217 214 213 214 212 211 219 230 235 227 223 226 227 229 234 235 234 234 233 232 231 232 235 237 236 231 225 221 215 205 206 211 213 216 218 221 229 229 225 229 239 252 263 265 269 279 277 271 273 280 287 298 307 318 340 348 331 319 319 323 325 325 327 331 336 338 335 331
210 210 211 211 211 210 212 214 215 216 216 217 218 220 221 221 221 219 215 216 217 214 213 220 231 235 227 221 225 228 231 233 234 235 235 233 232 230 231 234 235 234 230 223 219 213 204 205 210 213 218 219 219 228 230 228 231 237 246 255 257 263 265 258 265 280 294 312 321 318 324 342 341 318 312 318 321 323 329 334 339 343 339 332 332
209 210 211 212 211 212 213 214 215 215 216 218 219 220 220 220 220 219 218 219 219 214 214 222 233 240 234 225 226 229 232 234 235 235 235 233 231 229 229 232 233 231 229 222 217 213 207 207 208 208 216 218 215 221 228 232 237 241 245 252 253 255 258 263 276 288 301 326 331 319 319 329 323 309 311 316 318 325 334 340 342 341 335 334 339
210 211 211 212 211 212 213 216 216 216 217 220 220 219 219 220 221 220 219 220 218 215 218 225 234 243 241 231 228 231 234 236 237 237 236 233 231 229 229 231 231 230 227 223 222 219 214 214 214 213 214 215 215 219 226 234 244 252 257 261 264 266 269 275 283 294 315 331 330 315 310 311 308 305 308 312 317 327 339 345 344 337 336 342 347
211 211 211 211 211 212 214 215 215 216 218 220 221 220 220 221 222 220 218 219 217 215 219 225 231 240 242 234 230 232 235 238 239 239 238 235 231 229 229 230 230 229 226 224 226 227 222 220 222 223 222 222 224 228 235 244 252 259 264 270 274 274 275 280 289 307 318 310 303 300 297 298 302 305 307 311 319 331 339 344 344 341 343 349 349
209 210 211 211 211 212 213 214 213 215 218 220 221 220 220 222 222 220 217 217 216 216 220 224 225 232 240 237 231 232 236 239 240 239 238 236 231 229 229 229 229 228 227 226 227 228 227 226 228 230 230 232 234 238 246 254 258 261 268 275 279 276 271 275 283 289 288 287 293 294 291 295 305 308 312 319 328 334 333 335 341 344 349 352 346
209 211 211 211 211 211 212 212 213 215 218 221 222 220 220 223 223 219 215 214 215 217 219 221 222 228 237 236 231 232 236 239 241 239 237 235 232 229 229 229 228 227 228 229 229 228 228 230 231 233 235 237 240 245 251 256 258 261 266 272 274 270 268 270 269 270 282 295 295 289 293 303 306 310 322 332 337 336 331 330 335 340 350 353 343
210 211 210 210 210 210 211 212 214 216 218 221 222 220 222 225 223 218 213 213 215 215 216 217 220 225 231 231 229 232 237 240 240 237 235 235 232 230 231 230 228 228 231 235 235 232 231 232 232 233 236 238 242 246 249 253 256 260 265 269 270 270 272 272 266 266 282 301 295 289 297 304 305 315 333 336 333 334 331 327 329 337 347 345 337